"Sample Date","Sample Time","Sensor Name","Sample Value","Units","Flow Rate","Sample Interval","Sample Volume","Laser Status","Number Channels","Micron Size 0","Counts/Channel 0","Micron Size 1","Counts/Channel 1","Micron Size 2","Counts/Channel 2","Micron Size 3","Counts/Channel 3","Micron Size 4","Counts/Channel 4","Micron Size 5","Counts/Channel 5","Micron Size 6","Counts/Channel 6","Micron Size 7","Counts/Channel 7","Micron Size 8","Counts/Channel 8","Micron Size 9","Counts/Channel 9","Micron Size 10","Counts/Channel 10","Micron Size 11","Counts/Channel 11","Micron Size 12","Counts/Channel 12","Micron Size 13","Counts/Channel 13","Micron Size 14","Counts/Channel 14","Micron Size 15","Counts/Channel 15","Micron Size 16","Counts/Channel 16","Micron Size 17","Counts/Channel 17","Micron Size 18","Counts/Channel 18","Micron Size 19","Counts/Channel 19","Micron Size 20","Counts/Channel 20","Micron Size 21","Counts/Channel 21","Micron Size 22","Counts/Channel 22","Micron Size 23","Counts/Channel 23","Micron Size 24","Counts/Channel 24","Micron Size 25","Counts/Channel 25","Micron Size 26","Counts/Channel 26","Micron Size 27","Counts/Channel 27","Micron Size 28","Counts/Channel 28","Micron Size 29","Counts/Channel 29","Micron Size 30","Counts/Channel 30","Micron Size 31","Counts/Channel 31"
"07/03/06","04:00:03","AMMA06",84284.000,"cc",28370.438,6.00,2837.044,1,6,0.100,43912.000,0.200,31507.000,0.300,6351.000,0.500,1494.000,1.000,1020.000,5.000,0
"07/03/06","04:00:09","AMMA06",84024.000,"cc",28300.443,6.00,2830.044,1,6,0.100,43585.000,0.200,31517.000,0.300,6410.000,0.500,1495.000,1.000,1016.000,5.000,1.000
"07/03/06","04:00:15","AMMA06",83455.000,"cc",28317.018,6.00,2831.702,1,6,0.100,43247.000,0.200,31333.000,0.300,6199.000,0.500,1631.000,1.000,1045.000,5.000,0
"07/03/06","04:00:21","AMMA06",83790.000,"cc",28317.484,6.00,2831.749,1,6,0.100,43459.000,0.200,31334.000,0.300,6375.000,0.500,1573.000,1.000,1049.000,5.000,0
"07/03/06","04:00:27","AMMA06",83982.000,"cc",28351.074,6.00,2835.108,1,6,0.100,43448.000,0.200,31597.000,0.300,6365.000,0.500,1545.000,1.000,1027.000,5.000,0
"07/03/06","04:00:33","AMMA06",83722.000,"cc",28271.977,6.00,2827.198,1,6,0.100,43674.000,0.200,31308.000,0.300,6212.000,0.500,1510.000,1.000,1018.000,5.000,0
"07/03/06","04:00:39","AMMA06",83863.000,"cc",28335.385,6.00,2833.539,1,6,0.100,43601.000,0.200,31441.000,0.300,6300.000,0.500,1523.000,1.000,998.000,5.000,0
"07/03/06","04:00:45","AMMA06",83556.000,"cc",28341.928,6.00,2834.193,1,6,0.100,43470.000,0.200,31172.000,0.300,6370.000,0.500,1553.000,1.000,991.000,5.000,0
"07/03/06","04:00:51","AMMA06",83863.000,"cc",28290.818,6.00,2829.082,1,6,0.100,43492.000,0.200,31412.000,0.300,6385.000,0.500,1546.000,1.000,1028.000,5.000,0
"07/03/06","04:00:57","AMMA06",83835.000,"cc",28287.377,6.00,2828.738,1,6,0.100,43425.000,0.200,31450.000,0.300,6434.000,0.500,1552.000,1.000,974.000,5.000,0
"07/03/06","04:01:03","AMMA06",84386.000,"cc",28349.398,6.00,2834.940,1,6,0.100,43862.000,0.200,31476.000,0.300,6412.000,0.500,1609.000,1.000,1027.000,5.000,0
"07/03/06","04:01:09","AMMA06",84023.000,"cc",28334.637,6.00,2833.464,1,6,0.100,43559.000,0.200,31586.000,0.300,6315.000,0.500,1571.000,1.000,992.000,5.000,0
"07/03/06","04:01:15","AMMA06",84038.000,"cc",28255.811,6.00,2825.581,1,6,0.100,43562.000,0.200,31415.000,0.300,6393.000,0.500,1574.000,1.000,1094.000,5.000,0
"07/03/06","04:01:21","AMMA06",83898.000,"cc",28362.096,6.00,2836.210,1,6,0.100,43675.000,0.200,31277.000,0.300,6395.000,0.500,1616.000,1.000,935.000,5.000,0
"07/03/06","04:01:27","AMMA06",83937.000,"cc",28297.467,6.00,2829.747,1,6,0.100,43612.000,0.200,31280.000,0.300,6408.000,0.500,1608.000,1.000,1029.000,5.000,0
"07/03/06","04:01:33","AMMA06",83441.000,"cc",28353.953,6.00,2835.396,1,6,0.100,43137.000,0.200,31309.000,0.300,6392.000,0.500,1551.000,1.000,1052.000,5.000,0
"07/03/06","04:01:39","AMMA06",83738.000,"cc",28328.922,6.00,2832.892,1,6,0.100,43463.000,0.200,31404.000,0.300,6298.000,0.500,1610.000,1.000,963.000,5.000,0
"07/03/06","04:01:45","AMMA06",84003.000,"cc",28308.106,6.00,2830.811,1,6,0.100,43313.000,0.200,31532.000,0.300,6571.000,0.500,1584.000,1.000,1003.000,5.000,0
"07/03/06","04:01:51","AMMA06",84118.000,"cc",28298.865,6.00,2829.887,1,6,0.100,43530.000,0.200,31480.000,0.300,6460.000,0.500,1610.000,1.000,1036.000,5.000,2.000
"07/03/06","04:01:57","AMMA06",83202.000,"cc",28361.811,6.00,2836.181,1,6,0.100,43155.000,0.200,31004.000,0.300,6412.000,0.500,1587.000,1.000,1044.000,5.000,0
"07/03/06","04:02:03","AMMA06",83311.000,"cc",28319.971,6.00,2831.997,1,6,0.100,43296.000,0.200,31262.000,0.300,6268.000,0.500,1498.000,1.000,987.000,5.000,0
"07/03/06","04:02:09","AMMA06",83464.000,"cc",28336.844,6.00,2833.685,1,6,0.100,43621.000,0.200,31154.000,0.300,6135.000,0.500,1507.000,1.000,1046.000,5.000,1.000
"07/03/06","04:02:15","AMMA06",84198.000,"cc",28272.090,6.00,2827.209,1,6,0.100,43520.000,0.200,31606.000,0.300,6494.000,0.500,1535.000,1.000,1043.000,5.000,0
"07/03/06","04:02:21","AMMA06",84162.000,"cc",28285.309,6.00,2828.531,1,6,0.100,43629.000,0.200,31624.000,0.300,6395.000,0.500,1520.000,1.000,994.000,5.000,0
"07/03/06","04:02:27","AMMA06",83921.000,"cc",28340.535,6.00,2834.054,1,6,0.100,43408.000,0.200,31575.000,0.300,6307.000,0.500,1555.000,1.000,1076.000,5.000,0
"07/03/06","04:02:33","AMMA06",83417.000,"cc",28348.514,6.00,2834.852,1,6,0.100,42952.000,0.200,31483.000,0.300,6403.000,0.500,1503.000,1.000,1076.000,5.000,0
"07/03/06","04:02:39","AMMA06",83819.000,"cc",28328.940,6.00,2832.894,1,6,0.100,43210.000,0.200,31642.000,0.300,6361.000,0.500,1581.000,1.000,1025.000,5.000,0
"07/03/06","04:02:45","AMMA06",83772.000,"cc",28345.820,6.00,2834.582,1,6,0.100,43431.000,0.200,31312.000,0.300,6467.000,0.500,1520.000,1.000,1042.000,5.000,0
"07/03/06","04:02:51","AMMA06",84183.000,"cc",28296.859,6.00,2829.686,1,6,0.100,43501.000,0.200,31545.000,0.300,6539.000,0.500,1563.000,1.000,1035.000,5.000,0
"07/03/06","04:02:57","AMMA06",83668.000,"cc",28267.490,6.00,2826.749,1,6,0.100,43011.000,0.200,31618.000,0.300,6457.000,0.500,1508.000,1.000,1074.000,5.000,0
"07/03/06","04:03:03","AMMA06",83940.000,"cc",28272.650,6.00,2827.265,1,6,0.100,43438.000,0.200,31461.000,0.300,6506.000,0.500,1512.000,1.000,1023.000,5.000,0
"07/03/06","04:03:09","AMMA06",84278.000,"cc",28357.838,6.00,2835.784,1,6,0.100,43601.000,0.200,31653.000,0.300,6414.000,0.500,1570.000,1.000,1040.000,5.000,0
"07/03/06","04:03:15","AMMA06",83669.000,"cc",28269.410,6.00,2826.941,1,6,0.100,43172.000,0.200,31515.000,0.300,6435.000,0.500,1489.000,1.000,1058.000,5.000,0
"07/03/06","04:03:21","AMMA06",83654.000,"cc",28385.426,6.00,2838.543,1,6,0.100,43283.000,0.200,31436.000,0.300,6439.000,0.500,1509.000,1.000,986.000,5.000,1.000
"07/03/06","04:03:27","AMMA06",83537.000,"cc",28277.857,6.00,2827.786,1,6,0.100,43250.000,0.200,31361.000,0.300,6358.000,0.500,1526.000,1.000,1042.000,5.000,0
"07/03/06","04:03:33","AMMA06",84350.000,"cc",28296.074,6.00,2829.608,1,6,0.100,43385.000,0.200,31881.000,0.300,6473.000,0.500,1585.000,1.000,1026.000,5.000,0
"07/03/06","04:03:39","AMMA06",84284.000,"cc",28331.830,6.00,2833.183,1,6,0.100,43338.000,0.200,31866.000,0.300,6458.000,0.500,1627.000,1.000,995.000,5.000,0
"07/03/06","04:03:45","AMMA06",84004.000,"cc",28323.836,6.00,2832.384,1,6,0.100,43272.000,0.200,31744.000,0.300,6368.000,0.500,1606.000,1.000,1014.000,5.000,0
"07/03/06","04:03:51","AMMA06",84036.000,"cc",28348.750,6.00,2834.875,1,6,0.100,43594.000,0.200,31396.000,0.300,6447.000,0.500,1564.000,1.000,1035.000,5.000,0
"07/03/06","04:03:57","AMMA06",83852.000,"cc",28276.920,6.00,2827.692,1,6,0.100,43197.000,0.200,31597.000,0.300,6406.000,0.500,1597.000,1.000,1055.000,5.000,0
"07/03/06","04:04:03","AMMA06",84178.000,"cc",28293.719,6.00,2829.372,1,6,0.100,43239.000,0.200,31822.000,0.300,6496.000,0.500,1601.000,1.000,1020.000,5.000,0
"07/03/06","04:04:09","AMMA06",84158.000,"cc",28333.582,6.00,2833.358,1,6,0.100,43644.000,0.200,31433.000,0.300,6413.000,0.500,1616.000,1.000,1051.000,5.000,1.000
"07/03/06","04:04:15","AMMA06",83717.000,"cc",28301.893,6.00,2830.190,1,6,0.100,43331.000,0.200,31518.000,0.300,6360.000,0.500,1536.000,1.000,972.000,5.000,0
"07/03/06","04:04:21","AMMA06",84124.000,"cc",28340.873,6.00,2834.087,1,6,0.100,43415.000,0.200,31603.000,0.300,6441.000,0.500,1584.000,1.000,1081.000,5.000,0
"07/03/06","04:04:27","AMMA06",83902.000,"cc",28290.922,6.00,2829.092,1,6,0.100,43518.000,0.200,31511.000,0.300,6227.000,0.500,1582.000,1.000,1064.000,5.000,0
"07/03/06","04:04:33","AMMA06",83981.000,"cc",28322.764,6.00,2832.277,1,6,0.100,43144.000,0.200,31793.000,0.300,6467.000,0.500,1548.000,1.000,1028.000,5.000,1.000
"07/03/06","04:04:39","AMMA06",83951.000,"cc",28346.971,6.00,2834.697,1,6,0.100,43274.000,0.200,31761.000,0.300,6373.000,0.500,1575.000,1.000,968.000,5.000,0
"07/03/06","04:04:45","AMMA06",84121.000,"cc",28250.313,6.00,2825.032,1,6,0.100,43286.000,0.200,31761.000,0.300,6447.000,0.500,1607.000,1.000,1020.000,5.000,0
"07/03/06","04:04:51","AMMA06",83591.000,"cc",28337.838,6.00,2833.784,1,6,0.100,43022.000,0.200,31649.000,0.300,6291.000,0.500,1586.000,1.000,1043.000,5.000,0
"07/03/06","04:04:57","AMMA06",83782.000,"cc",28326.688,6.00,2832.669,1,6,0.100,43306.000,0.200,31605.000,0.300,6293.000,0.500,1591.000,1.000,987.000,5.000,0
"07/03/06","04:05:03","AMMA06",84562.000,"cc",28318.182,6.00,2831.818,1,6,0.100,43569.000,0.200,32181.000,0.300,6257.000,0.500,1562.000,1.000,992.000,5.000,1.000
"07/03/06","04:05:09","AMMA06",83836.000,"cc",28295.928,6.00,2829.593,1,6,0.100,43355.000,0.200,31583.000,0.300,6373.000,0.500,1508.000,1.000,1016.000,5.000,1.000
"07/03/06","04:05:15","AMMA06",83801.000,"cc",28327.820,6.00,2832.782,1,6,0.100,43128.000,0.200,31815.000,0.300,6355.000,0.500,1535.000,1.000,968.000,5.000,0
"07/03/06","04:05:21","AMMA06",83635.000,"cc",28332.465,6.00,2833.247,1,6,0.100,43370.000,0.200,31399.000,0.300,6289.000,0.500,1516.000,1.000,1061.000,5.000,0
"07/03/06","04:05:27","AMMA06",83683.000,"cc",28295.703,6.00,2829.571,1,6,0.100,43468.000,0.200,31391.000,0.300,6270.000,0.500,1518.000,1.000,1036.000,5.000,0
"07/03/06","04:05:33","AMMA06",83543.000,"cc",28283.363,6.00,2828.336,1,6,0.100,43188.000,0.200,31546.000,0.300,6187.000,0.500,1550.000,1.000,1072.000,5.000,0
"07/03/06","04:05:39","AMMA06",84391.000,"cc",28342.848,6.00,2834.285,1,6,0.100,43664.000,0.200,31807.000,0.300,6347.000,0.500,1525.000,1.000,1047.000,5.000,1.000
"07/03/06","04:05:45","AMMA06",83809.000,"cc",28328.688,6.00,2832.869,1,6,0.100,43540.000,0.200,31421.000,0.300,6287.000,0.500,1586.000,1.000,975.000,5.000,0
"07/03/06","04:05:51","AMMA06",84012.000,"cc",28316.414,6.00,2831.642,1,6,0.100,43583.000,0.200,31625.000,0.300,6211.000,0.500,1565.000,1.000,1027.000,5.000,1.000
"07/03/06","04:05:57","AMMA06",83898.000,"cc",28353.945,6.00,2835.395,1,6,0.100,43387.000,0.200,31552.000,0.300,6366.000,0.500,1535.000,1.000,1057.000,5.000,1.000
"07/03/06","04:06:03","AMMA06",83280.000,"cc",28307.113,6.00,2830.711,1,6,0.100,42983.000,0.200,31396.000,0.300,6383.000,0.500,1550.000,1.000,968.000,5.000,0
"07/03/06","04:06:09","AMMA06",83300.000,"cc",28322.830,6.00,2832.283,1,6,0.100,42951.000,0.200,31445.000,0.300,6340.000,0.500,1543.000,1.000,1021.000,5.000,0
"07/03/06","04:06:15","AMMA06",83982.000,"cc",28347.518,6.00,2834.752,1,6,0.100,43353.000,0.200,31647.000,0.300,6297.000,0.500,1666.000,1.000,1019.000,5.000,0
"07/03/06","04:06:21","AMMA06",83186.000,"cc",28283.063,6.00,2828.306,1,6,0.100,43270.000,0.200,31043.000,0.300,6318.000,0.500,1552.000,1.000,1003.000,5.000,0
"07/03/06","04:06:27","AMMA06",84083.000,"cc",28302.264,6.00,2830.227,1,6,0.100,43765.000,0.200,31507.000,0.300,6246.000,0.500,1541.000,1.000,1023.000,5.000,1.000
"07/03/06","04:06:33","AMMA06",84316.000,"cc",28320.902,6.00,2832.090,1,6,0.100,43276.000,0.200,31969.000,0.300,6436.000,0.500,1645.000,1.000,990.000,5.000,0
"07/03/06","04:06:39","AMMA06",83440.000,"cc",28326.881,6.00,2832.688,1,6,0.100,42772.000,0.200,31651.000,0.300,6413.000,0.500,1572.000,1.000,1032.000,5.000,0
"07/03/06","04:06:45","AMMA06",83593.000,"cc",28254.713,6.00,2825.471,1,6,0.100,42983.000,0.200,31617.000,0.300,6495.000,0.500,1505.000,1.000,993.000,5.000,0
"07/03/06","04:06:51","AMMA06",83851.000,"cc",28324.400,6.00,2832.440,1,6,0.100,42959.000,0.200,31801.000,0.300,6462.000,0.500,1613.000,1.000,1016.000,5.000,0
"07/03/06","04:06:57","AMMA06",84181.000,"cc",28320.574,6.00,2832.058,1,6,0.100,43306.000,0.200,31991.000,0.300,6288.000,0.500,1539.000,1.000,1057.000,5.000,0
"07/03/06","04:07:03","AMMA06",83997.000,"cc",28340.877,6.00,2834.088,1,6,0.100,43257.000,0.200,31602.000,0.300,6500.000,0.500,1582.000,1.000,1056.000,5.000,0
"07/03/06","04:07:09","AMMA06",83931.000,"cc",28334.838,6.00,2833.484,1,6,0.100,43246.000,0.200,31688.000,0.300,6414.000,0.500,1561.000,1.000,1022.000,5.000,0
"07/03/06","04:07:15","AMMA06",83871.000,"cc",28335.117,6.00,2833.512,1,6,0.100,43328.000,0.200,31619.000,0.300,6301.000,0.500,1633.000,1.000,990.000,5.000,0
"07/03/06","04:07:21","AMMA06",83956.000,"cc",28313.133,6.00,2831.314,1,6,0.100,43044.000,0.200,31842.000,0.300,6501.000,0.500,1530.000,1.000,1039.000,5.000,0
"07/03/06","04:07:27","AMMA06",83946.000,"cc",28325.967,6.00,2832.597,1,6,0.100,43197.000,0.200,31688.000,0.300,6443.000,0.500,1568.000,1.000,1050.000,5.000,0
"07/03/06","04:07:33","AMMA06",84221.000,"cc",28320.541,6.00,2832.054,1,6,0.100,43304.000,0.200,31829.000,0.300,6514.000,0.500,1542.000,1.000,1032.000,5.000,0
"07/03/06","04:07:39","AMMA06",83732.000,"cc",28275.078,6.00,2827.508,1,6,0.100,43172.000,0.200,31578.000,0.300,6401.000,0.500,1521.000,1.000,1060.000,5.000,0
"07/03/06","04:07:45","AMMA06",83906.000,"cc",28370.863,6.00,2837.086,1,6,0.100,42836.000,0.200,31970.000,0.300,6533.000,0.500,1506.000,1.000,1061.000,5.000,0
"07/03/06","04:07:51","AMMA06",84381.000,"cc",28317.129,6.00,2831.713,1,6,0.100,43456.000,0.200,31805.000,0.300,6547.000,0.500,1533.000,1.000,1040.000,5.000,0
"07/03/06","04:07:57","AMMA06",83828.000,"cc",28318.168,6.00,2831.817,1,6,0.100,42750.000,0.200,31904.000,0.300,6670.000,0.500,1482.000,1.000,1022.000,5.000,0
"07/03/06","04:08:03","AMMA06",83894.000,"cc",28304.041,6.00,2830.404,1,6,0.100,42654.000,0.200,31762.000,0.300,6728.000,0.500,1628.000,1.000,1122.000,5.000,0
"07/03/06","04:08:09","AMMA06",83997.000,"cc",28320.918,6.00,2832.092,1,6,0.100,42833.000,0.200,31950.000,0.300,6622.000,0.500,1572.000,1.000,1020.000,5.000,0
"07/03/06","04:08:15","AMMA06",83640.000,"cc",28291.318,6.00,2829.132,1,6,0.100,42720.000,0.200,31861.000,0.300,6476.000,0.500,1522.000,1.000,1061.000,5.000,0
"07/03/06","04:08:21","AMMA06",84206.000,"cc",28338.754,6.00,2833.876,1,6,0.100,43007.000,0.200,31898.000,0.300,6722.000,0.500,1522.000,1.000,1057.000,5.000,0
"07/03/06","04:08:27","AMMA06",83757.000,"cc",28317.672,6.00,2831.767,1,6,0.100,42881.000,0.200,31727.000,0.300,6612.000,0.500,1506.000,1.000,1031.000,5.000,0
"07/03/06","04:08:33","AMMA06",84091.000,"cc",28289.676,6.00,2828.968,1,6,0.100,42838.000,0.200,32050.000,0.300,6564.000,0.500,1574.000,1.000,1065.000,5.000,0
"07/03/06","04:08:39","AMMA06",84183.000,"cc",28311.883,6.00,2831.189,1,6,0.100,42695.000,0.200,32183.000,0.300,6717.000,0.500,1627.000,1.000,961.000,5.000,0
"07/03/06","04:08:45","AMMA06",84025.000,"cc",28328.803,6.00,2832.880,1,6,0.100,42871.000,0.200,32096.000,0.300,6485.000,0.500,1522.000,1.000,1051.000,5.000,0
"07/03/06","04:08:51","AMMA06",83687.000,"cc",28330.533,6.00,2833.054,1,6,0.100,42623.000,0.200,31880.000,0.300,6566.000,0.500,1577.000,1.000,1041.000,5.000,0
"07/03/06","04:08:57","AMMA06",83687.000,"cc",28287.449,6.00,2828.745,1,6,0.100,43000.000,0.200,31529.000,0.300,6465.000,0.500,1622.000,1.000,1070.000,5.000,1.000
"07/03/06","04:09:03","AMMA06",83961.000,"cc",28282.516,6.00,2828.252,1,6,0.100,43000.000,0.200,31741.000,0.300,6579.000,0.500,1582.000,1.000,1058.000,5.000,1.000
"07/03/06","04:09:09","AMMA06",83859.000,"cc",28351.400,6.00,2835.140,1,6,0.100,42994.000,0.200,31749.000,0.300,6512.000,0.500,1607.000,1.000,997.000,5.000,0
"07/03/06","04:09:15","AMMA06",83595.000,"cc",28344.861,6.00,2834.486,1,6,0.100,43094.000,0.200,31475.000,0.300,6463.000,0.500,1514.000,1.000,1049.000,5.000,0
"07/03/06","04:09:21","AMMA06",83789.000,"cc",28282.867,6.00,2828.287,1,6,0.100,42993.000,0.200,31825.000,0.300,6398.000,0.500,1544.000,1.000,1029.000,5.000,0
"07/03/06","04:09:27","AMMA06",83770.000,"cc",28304.379,6.00,2830.438,1,6,0.100,42934.000,0.200,31785.000,0.300,6450.000,0.500,1517.000,1.000,1083.000,5.000,1.000
"07/03/06","04:09:33","AMMA06",83794.000,"cc",28340.359,6.00,2834.036,1,6,0.100,43098.000,0.200,31572.000,0.300,6481.000,0.500,1623.000,1.000,1020.000,5.000,0
"07/03/06","04:09:39","AMMA06",83743.000,"cc",28289.764,6.00,2828.977,1,6,0.100,42990.000,0.200,31726.000,0.300,6385.000,0.500,1620.000,1.000,1021.000,5.000,1.000
"07/03/06","04:09:45","AMMA06",83893.000,"cc",28342.760,6.00,2834.276,1,6,0.100,43263.000,0.200,31625.000,0.300,6268.000,0.500,1659.000,1.000,1078.000,5.000,0
"07/03/06","04:09:51","AMMA06",83513.000,"cc",28341.904,6.00,2834.191,1,6,0.100,42941.000,0.200,31642.000,0.300,6273.000,0.500,1610.000,1.000,1047.000,5.000,0
"07/03/06","04:09:57","AMMA06",84087.000,"cc",28325.826,6.00,2832.583,1,6,0.100,43514.000,0.200,31651.000,0.300,6239.000,0.500,1660.000,1.000,1022.000,5.000,1.000
"07/03/06","04:10:03","AMMA06",83859.000,"cc",28298.719,6.00,2829.872,1,6,0.100,43266.000,0.200,31578.000,0.300,6373.000,0.500,1609.000,1.000,1033.000,5.000,0
"07/03/06","04:10:09","AMMA06",83696.000,"cc",28238.070,6.00,2823.807,1,6,0.100,43412.000,0.200,31483.000,0.300,6205.000,0.500,1568.000,1.000,1027.000,5.000,1.000
"07/03/06","04:10:15","AMMA06",83884.000,"cc",28331.793,6.00,2833.179,1,6,0.100,43324.000,0.200,31795.000,0.300,6180.000,0.500,1579.000,1.000,1005.000,5.000,1.000
"07/03/06","04:10:21","AMMA06",82938.000,"cc",28310.785,6.00,2831.079,1,6,0.100,42857.000,0.200,31164.000,0.300,6315.000,0.500,1591.000,1.000,1011.000,5.000,0
"07/03/06","04:10:27","AMMA06",83807.000,"cc",28335.973,6.00,2833.597,1,6,0.100,43207.000,0.200,31788.000,0.300,6209.000,0.500,1591.000,1.000,1011.000,5.000,1.000
"07/03/06","04:10:33","AMMA06",83601.000,"cc",28328.516,6.00,2832.852,1,6,0.100,43238.000,0.200,31495.000,0.300,6219.000,0.500,1648.000,1.000,1001.000,5.000,0
"07/03/06","04:10:39","AMMA06",83624.000,"cc",28290.818,6.00,2829.082,1,6,0.100,43169.000,0.200,31652.000,0.300,6217.000,0.500,1580.000,1.000,1006.000,5.000,0
"07/03/06","04:10:45","AMMA06",83707.000,"cc",28281.914,6.00,2828.192,1,6,0.100,43096.000,0.200,31701.000,0.300,6298.000,0.500,1557.000,1.000,1055.000,5.000,0
"07/03/06","04:10:51","AMMA06",83943.000,"cc",28323.816,6.00,2832.382,1,6,0.100,43231.000,0.200,31714.000,0.300,6290.000,0.500,1604.000,1.000,1104.000,5.000,0
"07/03/06","04:10:57","AMMA06",83591.000,"cc",28381.357,6.00,2838.136,1,6,0.100,42960.000,0.200,31849.000,0.300,6191.000,0.500,1555.000,1.000,1035.000,5.000,1.000
"07/03/06","04:11:03","AMMA06",83556.000,"cc",28310.434,6.00,2831.044,1,6,0.100,43133.000,0.200,31475.000,0.300,6346.000,0.500,1576.000,1.000,1026.000,5.000,0
"07/03/06","04:11:09","AMMA06",83860.000,"cc",28315.342,6.00,2831.534,1,6,0.100,43428.000,0.200,31526.000,0.300,6274.000,0.500,1586.000,1.000,1046.000,5.000,0
"07/03/06","04:11:15","AMMA06",84509.000,"cc",28322.699,6.00,2832.270,1,6,0.100,43569.000,0.200,31975.000,0.300,6396.000,0.500,1557.000,1.000,1012.000,5.000,0
"07/03/06","04:11:21","AMMA06",84048.000,"cc",28336.703,6.00,2833.670,1,6,0.100,43366.000,0.200,31602.000,0.300,6547.000,0.500,1524.000,1.000,1009.000,5.000,0
"07/03/06","04:11:27","AMMA06",83468.000,"cc",28319.223,6.00,2831.922,1,6,0.100,43021.000,0.200,31337.000,0.300,6504.000,0.500,1576.000,1.000,1030.000,5.000,0
"07/03/06","04:11:33","AMMA06",84291.000,"cc",28323.856,6.00,2832.386,1,6,0.100,43018.000,0.200,32126.000,0.300,6480.000,0.500,1626.000,1.000,1041.000,5.000,0
"07/03/06","04:11:39","AMMA06",84281.000,"cc",28310.672,6.00,2831.067,1,6,0.100,43353.000,0.200,31920.000,0.300,6349.000,0.500,1598.000,1.000,1061.000,5.000,0
"07/03/06","04:11:45","AMMA06",84046.000,"cc",28354.561,6.00,2835.456,1,6,0.100,43078.000,0.200,31830.000,0.300,6545.000,0.500,1570.000,1.000,1023.000,5.000,0
"07/03/06","04:11:51","AMMA06",83893.000,"cc",28338.463,6.00,2833.846,1,6,0.100,42940.000,0.200,32045.000,0.300,6282.000,0.500,1579.000,1.000,1046.000,5.000,1.000
"07/03/06","04:11:57","AMMA06",84034.000,"cc",28247.416,6.00,2824.742,1,6,0.100,42655.000,0.200,32103.000,0.300,6688.000,0.500,1531.000,1.000,1057.000,5.000,0
"07/03/06","04:12:03","AMMA06",83772.000,"cc",28346.561,6.00,2834.656,1,6,0.100,42684.000,0.200,32011.000,0.300,6547.000,0.500,1497.000,1.000,1032.000,5.000,1.000
"07/03/06","04:12:09","AMMA06",83954.000,"cc",28342.791,6.00,2834.279,1,6,0.100,42666.000,0.200,32016.000,0.300,6564.000,0.500,1643.000,1.000,1064.000,5.000,1.000
"07/03/06","04:12:15","AMMA06",83905.000,"cc",28297.732,6.00,2829.773,1,6,0.100,42717.000,0.200,31877.000,0.300,6727.000,0.500,1530.000,1.000,1054.000,5.000,0
"07/03/06","04:12:21","AMMA06",83904.000,"cc",28295.723,6.00,2829.573,1,6,0.100,42887.000,0.200,31862.000,0.300,6626.000,0.500,1454.000,1.000,1075.000,5.000,0
"07/03/06","04:12:27","AMMA06",84424.000,"cc",28338.900,6.00,2833.890,1,6,0.100,42930.000,0.200,32267.000,0.300,6691.000,0.500,1492.000,1.000,1043.000,5.000,1.000
"07/03/06","04:12:33","AMMA06",84111.000,"cc",28347.711,6.00,2834.771,1,6,0.100,42651.000,0.200,32194.000,0.300,6682.000,0.500,1496.000,1.000,1088.000,5.000,0
"07/03/06","04:12:39","AMMA06",84076.000,"cc",28298.682,6.00,2829.868,1,6,0.100,43009.000,0.200,31773.000,0.300,6675.000,0.500,1554.000,1.000,1064.000,5.000,1.000
"07/03/06","04:12:45","AMMA06",83922.000,"cc",28321.699,6.00,2832.170,1,6,0.100,42479.000,0.200,32156.000,0.300,6583.000,0.500,1595.000,1.000,1109.000,5.000,0
"07/03/06","04:12:51","AMMA06",84264.000,"cc",28276.783,6.00,2827.679,1,6,0.100,43066.000,0.200,31936.000,0.300,6600.000,0.500,1550.000,1.000,1112.000,5.000,0
"07/03/06","04:12:57","AMMA06",84625.000,"cc",28357.940,6.00,2835.794,1,6,0.100,43036.000,0.200,32266.000,0.300,6679.000,0.500,1571.000,1.000,1072.000,5.000,1.000
"07/03/06","04:13:03","AMMA06",84545.000,"cc",28330.709,6.00,2833.071,1,6,0.100,42965.000,0.200,32146.000,0.300,6762.000,0.500,1552.000,1.000,1120.000,5.000,0
"07/03/06","04:13:09","AMMA06",84228.000,"cc",28356.023,6.00,2835.603,1,6,0.100,42773.000,0.200,32275.000,0.300,6563.000,0.500,1538.000,1.000,1079.000,5.000,0
"07/03/06","04:13:15","AMMA06",83857.000,"cc",28294.365,6.00,2829.437,1,6,0.100,42659.000,0.200,31984.000,0.300,6571.000,0.500,1544.000,1.000,1099.000,5.000,0
"07/03/06","04:13:21","AMMA06",84022.000,"cc",28259.033,6.00,2825.904,1,6,0.100,42943.000,0.200,32064.000,0.300,6503.000,0.500,1497.000,1.000,1015.000,5.000,0
"07/03/06","04:13:27","AMMA06",84033.000,"cc",28293.334,6.00,2829.334,1,6,0.100,42712.000,0.200,31889.000,0.300,6809.000,0.500,1559.000,1.000,1064.000,5.000,0
"07/03/06","04:13:33","AMMA06",83657.000,"cc",28365.574,6.00,2836.558,1,6,0.100,42688.000,0.200,31615.000,0.300,6617.000,0.500,1677.000,1.000,1060.000,5.000,0
"07/03/06","04:13:39","AMMA06",83899.000,"cc",28315.906,6.00,2831.591,1,6,0.100,42556.000,0.200,31943.000,0.300,6733.000,0.500,1613.000,1.000,1054.000,5.000,0
"07/03/06","04:13:45","AMMA06",84217.000,"cc",28305.232,6.00,2830.523,1,6,0.100,42931.000,0.200,32004.000,0.300,6552.000,0.500,1615.000,1.000,1114.000,5.000,1.000
"07/03/06","04:13:51","AMMA06",83640.000,"cc",28301.598,6.00,2830.160,1,6,0.100,42740.000,0.200,31653.000,0.300,6662.000,0.500,1514.000,1.000,1071.000,5.000,0
"07/03/06","04:13:57","AMMA06",83745.000,"cc",28343.338,6.00,2834.334,1,6,0.100,42997.000,0.200,31664.000,0.300,6479.000,0.500,1548.000,1.000,1056.000,5.000,1.000
"07/03/06","04:14:03","AMMA06",84307.000,"cc",28324.703,6.00,2832.471,1,6,0.100,43215.000,0.200,31994.000,0.300,6580.000,0.500,1536.000,1.000,982.000,5.000,0